Location: Waldport
(44.4270°N, 124.0680°W)
Time: 16:32:21
(UTC-07:00)

Meteor 1-26 Rocket - Visible Passes

Search period start: 29 August 2015 00:00
Search period end: 08 September 2015 00:00
Orbit: 827 x 908 km, 81.3° (Epoch: 29 August)

Date Brightness Start Highest point End Pass type
(mag) Time Alt. Az. Time Alt. Az. Time Alt. Az.
29 Aug 5.1 04:25:12 10° SSE 04:30:46 49° E 04:36:26 10° NNE visible
30 Aug 5.1 04:19:07 15° SSE 04:23:54 50° E 04:29:33 10° NNE visible
30 Aug 5.4 06:02:36 10° WSW 06:07:32 26° WNW 06:12:20 10° NNW visible
31 Aug 5.0 04:12:59 19° SSE 04:17:01 51° E 04:22:41 10° NNE visible
31 Aug 5.4 05:55:46 10° WSW 06:00:40 26° WNW 06:05:25 10° NNW visible
01 Sep 5.0 04:06:48 24° SSE 04:10:08 51° E 04:15:48 10° NNE visible
01 Sep 5.4 05:49:13 11° WSW 05:53:48 25° WNW 05:58:31 10° NNW visible
02 Sep 4.9 04:00:34 30° SSE 04:03:15 52° E 04:08:55 10° NNE visible
02 Sep 5.5 05:42:59 13° WSW 05:46:56 25° WNW 05:51:36 10° NNW visible
03 Sep 4.9 03:54:17 36° SSE 03:56:22 53° E 04:02:02 10° NNE visible
03 Sep 5.5 05:36:42 16° WSW 05:40:04 24° WNW 05:44:41 10° NNW visible
04 Sep 4.8 03:47:58 42° SE 03:49:29 54° E 03:55:10 10° NNE visible
04 Sep 5.5 05:30:23 18° WSW 05:33:12 24° WNW 05:37:47 10° NNW visible
05 Sep 4.8 03:41:37 49° SE 03:42:36 55° E 03:48:17 10° NNE visible
05 Sep 5.5 05:24:02 19° W 05:26:20 24° WNW 05:30:52 10° NNW visible
06 Sep 4.7 03:35:15 54° ESE 03:35:43 56° E 03:41:24 10° NNE visible
06 Sep 5.5 05:17:39 20° W 05:19:28 23° WNW 05:23:57 10° NNW visible
07 Sep 4.7 03:28:50 57° E 03:28:50 57° E 03:34:31 10° NNE visible
07 Sep 5.5 05:11:14 21° W 05:12:36 23° WNW 05:17:02 10° NNW visible
